Date String (YYYY-MM-DD hh:mm:ss) UTC,Instrument flags,Ambient pressure (hPa),Sample flow (lpm),Bypass flow (lpm),Sample temperature (°C),Ambient temperature (°C),ASC tube jacket temperature (°C),LED temperature (°C),Box temperature (°C),Sample RH (%),Span deviation,Mass concentration (μg/m³),Mass concentration (μg/m³),Mass concentration (μg/m³)
DateTimeUTC,F1_M11,P_M11,Q1_M11,Q2_M11,T1_M11,T2_M11,T3_M11,T4_M11,T5_M11,U1_M11,ZSPAN_M11,X0_M11,X2_M11,X1_M11
2022-10-17 04:00:00,,0834.2,5.00,0.00,28.6,27.0,00.0,37.6,30.4,15.0,0000.0,0012.68,0007.76,0007.20
2022-10-17 04:01:00,,0834.1,4.99,0.00,28.6,27.0,00.0,37.6,30.3,15.1,0000.1,0012.68,0007.76,0007.19
2022-10-17 04:02:00,,0834.1,5.02,0.00,28.6,27.0,00.0,37.6,30.4,15.1,0000.1,0012.77,0007.79,0007.21
2022-10-17 04:03:00,,0834.1,4.99,0.00,28.6,27.0,00.0,37.5,30.3,15.1,0000.0,0012.21,0007.80,0007.20
2022-10-17 04:04:00,,0834.1,5.00,0.00,28.6,26.9,00.0,37.5,30.4,15.1,0000.0,0011.76,0007.79,0007.19
2022-10-17 04:05:00,,0834.1,4.99,0.00,28.6,26.9,00.0,37.5,30.3,15.1,0000.0,0011.86,0007.79,0007.19
2022-10-17 04:06:00,,0834.2,5.01,0.00,28.6,26.9,00.0,37.5,30.3,15.1,0000.0,0012.00,0007.79,0007.19
2022-10-17 04:07:00,,0834.2,5.00,0.00,28.6,26.9,00.0,37.5,30.3,15.1,0000.0,0012.00,0007.77,0007.18
2022-10-17 04:08:00,,0834.2,4.99,0.00,28.6,26.9,00.0,37.5,30.3,15.1,0000.0,0011.92,0007.73,0007.16
2022-10-17 04:09:00,,0834.2,5.02,0.00,28.6,26.9,00.0,37.5,30.3,15.0,0000.0,0011.97,0007.75,0007.16
2022-10-17 04:10:00,,0834.2,4.99,0.00,28.6,26.9,00.0,37.5,30.2,15.1,0000.0,0011.74,0007.74,0007.16
2022-10-17 04:11:00,,0834.3,5.02,0.00,28.6,26.9,00.0,37.5,30.3,15.1,0000.0,0011.29,0007.69,0007.15
2022-10-17 04:12:00,,0834.3,4.99,0.00,28.6,26.9,00.0,37.5,30.3,15.1,0000.0,0011.25,0007.68,0007.15
2022-10-17 04:13:00,,0834.3,5.00,0.00,28.6,26.9,00.0,37.5,30.3,15.1,0000.0,0011.31,0007.71,0007.15
2022-10-17 04:14:00,,0834.3,5.01,0.00,28.6,26.9,00.0,37.5,30.3,15.0,0000.1,0011.43,0007.71,0007.16
2022-10-17 04:15:00,,0834.3,4.99,0.00,28.5,26.9,00.0,37.5,30.3,15.0,0000.0,0011.65,0007.73,0007.18
2022-10-17 04:16:00,,0834.3,4.99,0.00,28.5,26.8,00.0,37.5,30.3,15.0,0001.5,0011.59,0007.74,0007.18
2022-10-17 04:17:00,,0834.3,5.02,0.00,28.5,26.8,00.0,37.5,30.3,15.0,0002.3,0011.46,0007.74,0007.19
2022-10-17 04:18:00,,0834.3,4.99,0.00,28.5,26.8,00.0,37.4,30.2,15.0,0002.5,0011.75,0007.73,0007.19
2022-10-17 04:19:00,,0834.3,4.99,0.00,28.5,26.8,00.0,37.4,30.2,15.0,0002.7,0011.91,0007.78,0007.20
2022-10-17 04:20:00,,0834.3,5.02,0.00,28.5,26.8,00.0,37.4,30.2,15.0,0002.6,0011.93,0007.78,0007.20
2022-10-17 04:21:00,,0834.3,4.99,0.00,28.5,26.8,00.0,37.4,30.2,15.0,0002.4,0011.79,0007.78,0007.21
2022-10-17 04:22:00,,0834.3,4.99,0.00,28.5,26.8,00.0,37.4,30.2,15.0,0002.5,0012.06,0007.82,0007.21
2022-10-17 04:23:00,,0834.3,5.01,0.00,28.5,26.8,00.0,37.4,30.2,15.0,0002.7,0011.97,0007.82,0007.22
2022-10-17 04:24:00,,0834.4,4.99,0.00,28.5,26.9,00.0,37.4,30.3,15.0,0003.2,0011.85,0007.77,0007.21
2022-10-17 04:25:00,,0834.4,4.99,0.00,28.5,26.9,00.0,37.4,30.3,15.0,0003.1,0011.65,0007.74,0007.20
2022-10-17 04:26:00,,0834.4,5.02,0.00,28.5,27.0,00.0,37.4,30.4,15.1,0003.0,0011.67,0007.70,0007.19
2022-10-17 04:27:00,,0834.4,4.99,0.00,28.5,27.0,00.0,37.4,30.4,15.2,0001.1,0012.45,0007.69,0007.17
2022-10-17 04:28:00,,0834.4,5.00,0.00,28.5,27.0,00.0,37.4,30.4,15.2,0000.0,0012.94,0007.71,0007.16
2022-10-17 04:29:00,,0834.4,5.00,0.00,28.5,27.0,00.0,37.4,30.4,15.2,0000.0,0012.79,0007.70,0007.15
2022-10-17 04:30:00,,0834.4,5.01,0.00,28.6,27.0,00.0,37.4,30.4,15.2,0000.0,0012.69,0007.68,0007.14
2022-10-17 04:31:00,,0834.4,4.99,0.00,28.6,27.1,00.0,37.4,30.4,15.2,0000.0,0013.40,0007.67,0007.13
2022-10-17 04:32:00,,0834.4,4.99,0.00,28.6,27.1,00.0,37.4,30.4,15.2,0000.0,0013.43,0007.66,0007.12
2022-10-17 04:33:00,,0834.4,5.01,0.00,28.6,27.1,00.0,37.4,30.4,15.1,0000.0,0013.14,0007.60,0007.11
2022-10-17 04:34:00,,0834.4,5.00,0.00,28.6,27.1,00.0,37.4,30.5,15.1,0000.0,0013.19,0007.59,0007.09
2022-10-17 04:35:00,,0834.4,5.00,0.00,28.6,27.1,00.0,37.4,30.5,15.1,0000.0,0013.38,0007.61,0007.07
2022-10-17 04:36:00,,0834.4,4.99,0.00,28.6,27.1,00.0,37.4,30.5,15.2,0000.0,0013.73,0007.64,0007.06
2022-10-17 04:37:00,,0834.4,4.99,0.00,28.6,27.1,00.0,37.4,30.5,15.2,0000.0,0013.72,0007.62,0007.03
2022-10-17 04:38:00,,0834.4,5.02,0.00,28.6,27.1,00.0,37.4,30.5,15.3,0000.0,0012.90,0007.61,0007.02
2022-10-17 04:39:00,,0834.4,4.99,0.00,28.6,27.1,00.0,37.4,30.5,15.4,0000.0,0012.46,0007.60,0007.02
2022-10-17 04:40:00,,0834.4,4.99,0.00,28.6,27.1,00.0,37.4,30.5,15.4,0000.0,0012.12,0007.61,0007.03
2022-10-17 04:41:00,,0834.4,5.00,0.00,28.6,27.1,00.0,37.4,30.5,15.4,0000.0,0012.14,0007.61,0007.03
2022-10-17 04:42:00,,0834.4,5.00,0.00,28.6,27.1,00.0,37.4,30.5,15.4,0000.0,0011.50,0007.60,0007.02
2022-10-17 04:43:00,,0834.4,4.99,0.00,28.6,27.1,00.0,37.4,30.5,15.3,0000.0,0011.36,0007.60,0007.00
2022-10-17 04:44:00,,0834.4,5.02,0.00,28.6,27.1,00.0,37.4,30.5,15.3,0000.0,0011.52,0007.62,0007.00
2022-10-17 04:45:00,,0834.4,4.99,0.00,28.6,27.1,00.0,37.4,30.5,15.3,0000.0,0011.43,0007.60,0006.98
2022-10-17 04:46:00,,0834.4,5.00,0.00,28.6,27.1,00.0,37.4,30.5,15.2,0000.0,0011.84,0007.59,0006.98
2022-10-17 04:47:00,,0834.4,5.00,0.00,28.6,27.1,00.0,37.4,30.5,15.1,0000.0,0011.64,0007.59,0006.99
2022-10-17 04:48:00,,0834.4,5.01,0.00,28.6,27.1,00.0,37.4,30.5,15.0,0000.0,0011.40,0007.58,0006.99
2022-10-17 04:49:00,,0834.5,4.99,0.00,28.6,27.1,00.0,37.4,30.5,15.0,0000.0,0011.29,0007.58,0007.00
2022-10-17 04:50:00,,0834.5,4.99,0.00,28.6,27.1,00.0,37.4,30.5,15.0,-000.4,0011.34,0007.57,0006.98
2022-10-17 04:51:00,,0834.5,5.02,0.00,28.6,27.1,00.0,37.4,30.5,15.0,-000.2,0011.35,0007.54,0006.96
2022-10-17 04:52:00,,0834.5,4.99,0.00,28.6,27.1,00.0,37.4,30.5,15.0,0000.0,0011.85,0007.56,0006.96
2022-10-17 04:53:00,,0834.5,4.99,0.00,28.6,27.1,00.0,37.4,30.5,15.1,-000.1,0012.17,0007.58,0006.96
2022-10-17 04:54:00,,0834.5,5.01,0.00,28.6,27.1,00.0,37.4,30.5,15.1,0000.1,0012.18,0007.62,0006.98
2022-10-17 04:55:00,,0834.5,4.99,0.00,28.6,27.0,00.0,37.4,30.5,15.1,0000.1,0012.47,0007.63,0007.00
2022-10-17 04:56:00,,0834.5,4.99,0.00,28.6,27.0,00.0,37.4,30.5,15.0,-000.3,0012.74,0007.72,0007.02
2022-10-17 04:57:00,,0834.5,5.00,0.00,28.6,27.0,00.0,37.4,30.5,14.9,-000.4,0012.99,0007.75,0007.04
2022-10-17 04:58:00,,0834.5,5.01,0.00,28.6,27.0,00.0,37.4,30.5,14.9,-000.7,0012.87,0007.78,0007.05
2022-10-17 04:59:00,,0834.5,5.00,0.00,28.6,27.0,00.0,37.4,30.4,14.8,-000.3,0012.93,0007.81,0007.07
